Latest Weather Observations for Woomera

IDS60801

Issued at 2:02 pm CDT Saturday 20 December 2014 (issued every 30 minutes, with the page automatically refreshed every 10 minutes)

About weather observations | Map of weather stations | Latest weather observations for SA | Other Formats
Station Details ID: 016001 Name: WOOMERA AERODROME Lat: -31.16 Lon: 136.81 Height: 166.6 m
Data from the previous 72 hours. | See also: Recent months at Woomera
Date/Time
CDT
Temp
°C
App
Temp
°C
Dew
Point
Rel
Hum
%
Delta-T
°C
Wind Press
QNH
hPa
Press
MSL
hPa
Rain
since 9 am
mm
Dir
 
Spd
km/h
Gust
km/h
Spd
kts
Gust
kts
20/02:00pm 31.9 27.4 -3.2 10 16.2 NNE 11 17 6 9 1014.5 - 0.0
20/01:30pm 31.4 25.8 -3.1 10 15.9 NNE 17 22 9 12 1014.9 - 0.0
20/01:00pm 31.6 25.5 -4.1 10 16.2 N 19 24 10 13 1015.3 - 0.0
20/12:30pm 30.4 25.7 -2.0 12 15.1 N 13 28 7 15 1015.7 - 0.0
20/12:00pm 30.2 24.7 -2.1 12 15.0 N 17 24 9 13 1016.0 1015.2 0.0
20/11:30am 29.2 24.2 -1.0 14 14.2 NE 15 32 8 17 - - 0.0
20/11:00am 28.5 23.5 -1.1 14 13.8 NE 15 24 8 13 1016.6 - 0.0
20/10:30am 27.9 21.7 -0.4 16 13.3 ENE 22 30 12 16 1016.9 - 0.0
20/10:00am 26.8 21.0 -0.1 17 12.6 ENE 20 28 11 15 1017.1 - 0.0
20/09:30am 25.1 19.4 2.8 23 10.9 E 22 30 12 16 1017.3 - 0.0
20/09:00am 23.9 17.9 3.5 26 10.0 E 24 30 13 16 1017.3 1016.5 0.0
20/08:30am 22.3 17.0 4.8 32 8.7 ESE 22 28 12 15 1017.3 - 0.0
20/08:00am 20.6 15.5 6.1 39 7.3 ESE 22 28 12 15 1017.2 - 0.0
20/07:30am 18.7 14.2 6.8 46 6.0 SE 20 24 11 13 1017.2 - 0.0
20/07:00am 17.5 13.1 7.2 51 5.2 SE 20 22 11 12 1016.9 - 0.0
20/06:30am 16.8 12.6 7.5 54 4.7 SE 19 22 10 12 1016.8 - 0.0
20/06:00am 16.8 12.7 7.7 55 4.6 SE 19 22 10 12 1016.6 1015.8 0.0
20/05:30am 17.2 13.5 7.8 54 4.8 SE 17 20 9 11 1016.5 - 0.0
20/05:00am 17.6 13.9 8.1 53 4.9 SE 17 24 9 13 1016.6 - 0.0
20/04:30am 18.0 13.8 8.3 53 5.0 SE 20 26 11 14 1016.2 - 0.0
20/04:00am 18.3 14.2 8.7 53 5.0 SE 20 26 11 14 1016.1 - 0.0
20/03:30am 18.6 13.8 8.9 53 5.1 SE 24 32 13 17 1016.2 - 0.0
20/03:00am 18.9 14.1 9.0 52 5.2 SE 24 30 13 16 1016.4 1015.6 0.0
20/02:30am 19.0 15.2 8.9 52 5.3 SSE 19 22 10 12 1016.4 - 0.0
20/02:00am 19.4 15.4 9.0 51 5.5 SSE 20 26 11 14 1016.3 - 0.0
20/01:30am 20.0 15.0 7.9 45 6.3 SE 24 32 13 17 1016.5 - 0.0
20/01:00am 20.6 14.3 7.2 42 6.9 SE 30 37 16 20 1016.9 - 0.0
20/12:30am 21.3 15.0 5.8 36 7.8 SE 28 33 15 18 1017.0 - 0.0
20/12:00am 22.1 15.5 2.2 27 9.4 SSE 26 32 14 17 1017.1 1016.3 0.0
 
Date/Time
CDT
Temp
°C
App
Temp
°C
Dew
Point
Rel
Hum
%
Delta-T
°C
Wind Press
QNH
hPa
Press
MSL
hPa
Rain
since 9 am
mm
Dir
 
Spd
km/h
Gust
km/h
Spd
kts
Gust
kts
19/11:30pm 22.9 15.0 -1.9 19 10.9 SE 30 39 16 21 1017.2 - 0.0
19/11:00pm 23.8 16.4 -0.7 19 11.1 SE 28 35 15 19 1017.2 - 0.0
19/10:30pm 24.6 17.6 -0.2 19 11.4 SE 26 33 14 18 1017.1 - 0.0
19/10:00pm 25.4 18.3 -1.2 17 12.1 SE 26 32 14 17 1016.9 - 0.0
19/09:30pm 26.0 18.4 -2.0 15 12.6 SE 28 35 15 19 1016.9 - 0.0
19/09:00pm 26.7 18.4 -4.5 12 13.5 SSE 30 37 16 20 1016.7 1015.9 0.0
19/08:30pm 27.6 19.9 -3.0 13 13.7 SSE 28 37 15 20 1016.4 - 0.0
19/08:00pm 28.8 21.9 -2.6 13 14.3 SSE 24 32 13 17 1016.2 - 0.0
19/07:30pm 29.9 23.9 -3.0 11 15.0 SSE 19 24 10 13 1016.0 - 0.0
19/07:00pm 29.8 23.1 -3.8 11 15.1 S 22 33 12 18 1015.8 - 0.0
19/06:30pm 30.6 24.4 -5.2 9 15.8 S 19 28 10 15 1015.7 - 0.0
19/06:00pm 30.8 24.5 -5.7 9 16.0 SSW 19 32 10 17 1015.7 1014.9 0.0
19/05:30pm 29.8 23.3 -6.1 9 15.5 SSW 20 30 11 16 1015.8 - 0.0
19/05:00pm 30.0 23.1 -12.9 5 16.5 SSW 19 41 10 22 1016.1 - 0.0
19/04:30pm 29.5 22.8 -10.1 7 15.9 S 19 32 10 17 1016.3 - 0.0
19/04:00pm 30.4 23.7 -8.6 7 16.2 SW 20 28 11 15 1016.7 - 0.0
19/03:30pm 30.7 25.3 -4.9 9 15.8 SSW 15 26 8 14 1017.0 - 0.0
19/03:00pm 30.2 25.2 -4.2 10 15.4 SSE 13 30 7 16 1017.4 1016.6 0.0
19/02:30pm 28.5 23.3 -3.0 12 14.2 SSE 15 24 8 13 1017.9 - 0.0
19/02:00pm 27.5 21.9 -2.8 13 13.6 S 17 32 9 17 1018.2 - 0.0
19/01:30pm 27.0 22.5 -0.5 16 12.8 SE 13 26 7 14 1018.5 - 0.0
19/01:00pm 26.0 20.0 -1.6 16 12.5 SE 20 28 11 15 1018.9 - 0.0
19/12:30pm 25.2 19.7 0.3 19 11.6 SSE 19 28 10 15 1019.1 - 0.0
19/12:00pm 24.0 20.4 2.7 25 10.3 SE 11 15 6 8 1019.3 1018.5 0.0
19/11:30am 23.2 18.1 3.2 27 9.7 SSE 19 28 10 15 1019.4 - 0.0
19/11:00am 23.1 18.0 4.0 28 9.4 SSE 20 32 11 17 1019.3 - 0.0
19/10:30am 21.3 15.6 4.9 34 8.1 SSE 24 35 13 19 1019.3 - 0.0
19/10:00am 20.7 15.6 6.2 39 7.3 SSE 22 33 12 18 1019.4 - 0.0
19/09:30am 19.0 13.7 6.9 45 6.1 SSE 24 35 13 19 1019.4 - 0.0
19/09:00am 18.3 12.4 7.3 48 5.6 SE 28 37 15 20 1019.4 1018.6 0.0
19/08:30am 17.6 11.0 7.6 52 5.1 SE 32 43 17 23 1019.2 - 0.0
19/08:00am 16.9 10.2 8.3 57 4.4 SE 33 43 18 23 1018.8 - 0.0
19/07:30am 16.2 10.4 7.9 58 4.2 SSE 28 35 15 19 1018.3 - 0.0
19/07:00am 15.6 11.2 7.6 59 4.0 SSE 20 28 11 15 1018.1 - 0.0
19/06:30am 15.1 10.9 7.5 60 3.8 SSE 19 28 10 15 1017.8 - 0.0
19/06:00am 15.3 10.5 7.5 59 3.9 SSE 22 32 12 17 1017.3 1016.5 0.0
19/05:30am 15.5 11.3 7.5 59 4.0 SSE 19 24 10 13 1017.2 - 0.0
19/05:00am 15.7 11.1 8.0 60 3.9 SSE 22 28 12 15 1016.9 - 0.0
19/04:30am 15.9 11.3 8.2 60 3.9 SSE 22 28 12 15 1016.8 - 0.0
19/04:00am 16.2 10.9 8.4 60 4.0 SSE 26 33 14 18 1016.7 - 0.0
19/03:30am 16.5 10.7 7.8 56 4.4 SSE 28 41 15 22 1016.6 - 0.0
19/03:00am 16.9 11.1 8.1 56 4.5 SSE 28 37 15 20 1016.6 1015.8 0.0
19/02:30am 17.3 11.2 8.1 54 4.7 SSE 30 39 16 21 1016.6 - 0.0
19/02:00am 17.5 11.9 8.6 56 4.6 SSE 28 41 15 22 1016.5 - 0.0
19/01:30am 18.0 12.2 9.3 56 4.6 SSE 30 39 16 21 1016.6 - 0.0
19/01:00am 18.4 12.2 9.5 56 4.7 SSE 32 43 17 23 1016.7 - 0.0
19/12:30am 18.9 12.5 9.5 54 5.0 SSE 33 44 18 24 1016.5 - 0.0
19/12:00am 20.2 14.2 10.0 52 5.5 SSE 32 43 17 23 1016.3 1015.5 0.0
 
Date/Time
CDT
Temp
°C
App
Temp
°C
Dew
Point
Rel
Hum
%
Delta-T
°C
Wind Press
QNH
hPa
Press
MSL
hPa
Rain
since 9 am
mm
Dir
 
Spd
km/h
Gust
km/h
Spd
kts
Gust
kts
18/11:30pm 21.1 15.4 9.9 48 6.1 SSE 30 39 16 21 1015.8 - 0.0
18/11:00pm 21.7 15.1 10.0 47 6.4 SSE 35 46 19 25 1015.6 - 0.0
18/10:30pm 22.8 16.1 9.6 43 7.2 SE 35 43 19 23 1015.2 - 0.0
18/10:00pm 23.9 17.0 9.0 38 8.1 SE 35 46 19 25 1014.7 - 0.0
18/09:30pm 26.9 20.6 1.4 19 12.3 SSW 24 33 13 18 1014.1 - 0.0
18/09:00pm 27.5 21.7 2.3 19 12.4 SSW 22 30 12 16 1013.8 1013.0 0.0
18/08:30pm 28.1 21.5 2.1 18 12.8 SSW 26 33 14 18 1013.6 - 0.0
18/08:00pm 28.9 22.3 2.0 17 13.3 SSW 26 35 14 19 1013.3 - 0.0
18/07:30pm 29.7 23.5 1.9 17 13.8 SW 24 33 13 18 1012.9 - 0.0
18/07:00pm 30.0 22.9 1.4 16 14.1 SW 28 35 15 19 1012.6 - 0.0
18/06:44pm 30.0 22.9 1.4 16 14.1 SW 28 46 15 25 1012.3 - 0.0
18/06:30pm 30.1 23.4 1.7 16 14.1 SSW 26 35 14 19 1012.2 - 0.0
18/06:00pm 30.4 23.3 1.6 16 14.3 SW 28 35 15 19 1012.2 1011.3 0.0
18/05:30pm 31.4 25.1 1.5 15 14.9 SSW 24 37 13 20 1012.0 - 0.0
18/05:00pm 30.4 23.3 1.2 15 14.4 SW 28 43 15 23 1012.1 - 0.0
18/04:30pm 30.5 23.9 1.8 16 14.3 SW 26 41 14 22 1012.2 - 0.0
18/04:00pm 31.2 23.5 0.2 13 15.1 SSW 30 43 16 23 1012.1 - 0.0
18/03:30pm 30.9 24.0 0.3 14 14.9 SSW 26 39 14 21 1012.1 - 0.0
18/03:00pm 30.7 22.9 -0.6 13 15.0 SW 30 41 16 22 1012.2 1011.3 0.0
18/02:30pm 29.8 23.2 -0.3 14 14.4 SW 24 39 13 21 1012.2 - 0.0
18/02:00pm 29.5 23.4 0.2 15 14.1 S 22 32 12 17 1012.4 - 0.0
18/01:30pm 29.0 22.6 0.7 16 13.7 S 24 37 13 20 1012.6 - 0.0
18/01:00pm 27.8 20.6 0.7 17 13.0 S 28 39 15 21 1012.7 - 0.0
18/12:30pm 27.5 19.7 2.0 19 12.5 S 32 44 17 24 1012.6 - 0.0
18/12:00pm 27.3 19.5 1.6 19 12.5 S 32 43 17 23 1012.6 1011.8 0.0
18/11:30am 25.8 18.4 2.1 21 11.5 S 30 37 16 20 1012.5 - 0.0
18/11:00am 25.2 18.7 4.7 26 10.4 S 28 35 15 19 1012.6 - 0.0
18/10:30am 24.6 19.1 5.7 29 9.7 S 24 32 13 17 1012.5 - 0.0
18/10:00am 23.2 18.3 7.1 35 8.4 SSW 22 32 12 17 1012.7 - 0.0
18/09:30am 22.8 18.6 8.1 39 7.8 S 20 26 11 14 1012.6 - 0.0
18/09:00am 21.0 16.7 8.0 43 6.8 S 20 28 11 15 1012.5 1011.7 0.0
18/08:30am 20.4 15.2 7.4 43 6.7 SSW 24 30 13 16 1012.2 - 0.0
18/08:00am 19.6 14.4 7.3 45 6.3 S 24 28 13 15 1011.5 - 0.0
18/07:30am 18.9 14.5 8.8 52 5.3 S 22 26 12 14 1011.0 - 0.0
18/07:00am 17.9 14.9 7.8 51 5.2 SSE 13 15 7 8 1010.4 - 0.0
18/06:30am 17.1 13.6 7.2 52 5.0 SSE 15 17 8 9 1010.1 - 0.0
18/06:00am 17.3 13.7 6.7 49 5.3 S 15 20 8 11 1009.6 1008.8 0.0
18/05:30am 18.0 14.3 6.4 46 5.8 SSE 15 17 8 9 1009.5 - 0.0
18/05:00am 18.5 14.8 6.3 45 6.1 SSE 15 20 8 11 1009.4 - 0.0
18/04:30am 18.8 14.6 5.9 43 6.4 S 17 24 9 13 1009.3 - 0.0
18/04:00am 18.9 14.5 5.0 40 6.8 S 17 20 9 11 1009.0 - 0.0
18/03:30am 18.7 15.4 4.7 39 6.8 S 11 13 6 7 1008.7 - 0.0
18/03:00am 20.4 17.5 4.8 36 7.7 SE 9 11 5 6 1008.5 1007.7 0.0
18/02:30am 21.3 17.6 4.7 33 8.2 SSE 13 17 7 9 1008.1 - 0.0
18/02:00am 21.8 16.8 4.4 32 8.6 S 20 28 11 15 1007.9 - 0.0
18/01:30am 22.1 17.0 4.3 31 8.8 S 20 26 11 14 1008.0 - 0.0
18/01:00am 22.7 16.5 4.1 29 9.2 S 26 35 14 19 1008.3 - 0.0
18/12:30am 23.2 16.5 3.4 27 9.7 S 28 37 15 20 1008.1 - 0.0
18/12:00am 23.9 17.3 2.0 24 10.5 S 26 33 14 18 1008.2 1007.4 0.0
 
Date/Time
CDT
Temp
°C
App
Temp
°C
Dew
Point
Rel
Hum
%
Delta-T
°C
Wind Press
QNH
hPa
Press
MSL
hPa
Rain
since 9 am
mm
Dir
 
Spd
km/h
Gust
km/h
Spd
kts
Gust
kts
17/11:53pm 23.9 16.7 0.5 21 10.9 S 28 33 15 18 1008.2 - 0.0
17/11:30pm 23.4 19.4 -2.3 18 11.3 SSW 9 11 5 6 1008.1 - 0.0
17/11:00pm 24.9 21.8 -0.1 19 11.6 SSW 6 7 3 4 1008.0 - 0.0
17/10:30pm 25.5 22.1 -0.4 18 12.0 SSW 7 7 4 4 1007.5 - 0.0
17/10:00pm 25.8 21.8 -2.3 15 12.6 S 9 11 5 6 1007.4 - 0.0
17/09:30pm 26.6 22.0 -4.5 12 13.5 WSW 11 15 6 8 1007.5 - 0.0
17/09:00pm 27.2 21.4 -4.9 12 13.9 WSW 17 22 9 12 1007.6 1006.8 0.0
17/08:30pm 27.6 20.0 -5.9 10 14.2 WSW 26 35 14 19 1007.6 - 0.0
17/08:00pm 28.1 19.0 -10.1 7 15.1 WSW 32 37 17 20 1007.2 - 0.0
17/07:30pm 28.7 19.2 -12.4 6 15.7 W 33 41 18 22 1006.6 - 0.0
17/07:00pm 29.9 21.0 -11.8 6 16.3 W 30 44 16 24 1006.0 - 0.0
17/06:30pm 30.8 22.7 -18.6 3 17.4 WSW 24 28 13 15 1005.5 - 0.0
17/06:00pm 31.1 26.7 -6.0 8 16.3 W 9 19 5 10 1005.3 1004.4 0.0
17/05:30pm 29.6 26.3 -1.5 13 14.5 SSE 6 9 3 5 1005.6 - 0.0
17/05:00pm 30.1 23.7 -4.7 10 15.4 W 20 26 11 14 1005.9 - 0.0
17/04:30pm 28.7 24.3 -2.6 13 14.3 SSW 11 20 6 11 1006.3 - 0.0
17/04:00pm 28.0 23.7 -1.6 14 13.6 S 11 15 6 8 1006.6 - 0.0
17/03:30pm 27.8 23.9 -1.7 14 13.6 SSE 9 20 5 11 1007.2 - 0.0
17/03:00pm 26.6 21.7 -0.7 16 12.7 SW 15 22 8 12 1007.8 1007.0 0.0
17/02:30pm 26.1 21.1 -1.1 16 12.5 S 15 22 8 12 1008.3 - 0.0

Other Formats:

Comma delimited format used in spreadsheet applications
http://www.bom.gov.au/fwo/IDS60801/IDS60801.94659.axf

JavaScript Object Notation format (JSON) in row-major order
http://www.bom.gov.au/fwo/IDS60801/IDS60801.94659.json